Location: Charbonni�res
(45.9952°N, 2.9982°E)
Time: 14:42:53
(UTC+00:00)

SJ 16-02 - Pass Details

Date: 29 November 2020
Orbit: 606 x 616 km, 75.0° (Epoch: 27 January)

Event Time Altitude Azimuth Distance (km) Brightness Sun altitude
Exits shadow 06:23:10 10° 295° (WNW) 2,017 3.3 -7.7°
Reaches altitude 10° 06:23:36 10° 301° (WNW) 1,983 3.3 -7.6°
Maximum altitude 06:24:23 10° 311° (NW) 1,958 3.3 -7.5°
Drops below altitude 10° 06:25:10 10° 321° (NW) 1,985 3.4 -7.3°
Sets 06:29:36 0° 3° (N) 2,898 4.6 -6.6°
